Location: Ffald-y-Brenin
(52.0833°N, 4.0000°W)
Time: 08:47:26
(UTC+00:00)

Cosmos 2061 Rocket - Pass Details

Date: 18 February 2020
Orbit: 965 x 1013 km, 82.9° (Epoch: 09 April)

Event Time Altitude Azimuth Distance (km) Brightness Sun altitude
Rises 05:28:18 0° 350° (N) 3,723 7.0 -18.8°
Reaches altitude 10° 05:30:53 10° 353° (N) 2,763 6.3 -18.4°
Maximum altitude 05:37:12 68° 77° (ENE) 1,056 4.4 -17.4°
Drops below altitude 10° 05:43:23 10° 160° (SSE) 2,713 6.6 -16.4°
Sets 05:45:53 0° 163° (SSE) 3,651 7.2 -16.0°
